Location: *
(46.0770°N, 1.6444°E)
Time: 14:16:12
(UTC+00:00)

CZ-2C R/B - Pass Details

Date: 15 December 2019
Orbit: 785 x 870 km, 98.3° (Epoch: 21 January)

Event Time Altitude Azimuth Distance (km) Brightness Sun altitude
Rises 06:09:22 0° 120° (ESE) 3,313 7.7 -13.1°
Reaches altitude 10° 06:12:20 10° 102° (ESE) 2,373 6.5 -12.6°
Maximum altitude 06:15:52 19° 60° (ENE) 1,832 5.0 -12.0°
Drops below altitude 10° 06:19:23 10° 17° (NNE) 2,361 5.0 -11.4°
Sets 06:22:20 0° 360° (N) 3,290 5.5 -11.0°
